Simultaneous Nadir Overpasses (SNOs) Predictions

Prediction of SNOs between TERRA and METOP-C Satellite Orbit:

Table of predicted SNOs for the next 14.0 days since TLE Epoch: 10/30/2021
Index Date (TERRA) Time (TERRA) Lat,Lon (TERRA) SZA (TERRA ) Date (METOP-C) Time (METOP-C) Lat,Lon (METOP-C) SZA (METOP-C ) Distance(km) Time Diff (sec)
1 10/30/2021 22:58:29 -81.22, 59.19 81.91 10/30/2021 22:58:16 -81.22, 59.06 81.93 2.16 13
2 10/30/2021 23:47:55 81.22,-133.08 98.12 10/30/2021 23:48:54 81.23,-132.96 98.17 2.20 59
3 11/02/2021 18:32:42 -81.21, 125.52 81.04 11/02/2021 18:32:40 -81.21, 125.34 81.05 2.91 2
4 11/02/2021 19:22:07 81.24, -66.41 99.05 11/02/2021 19:23:17 81.24, -66.29 99.09 1.95 70
5 11/05/2021 13:17:28 81.20, 24.16 99.79 11/05/2021 13:16:22 81.21, 24.29 99.78 2.43 66
6 11/05/2021 14:06:54 -81.22,-167.87 80.15 11/05/2021 14:07:03 -81.22,-168.03 80.17 2.62 9
7 11/08/2021 08:51:40 81.21, 90.67 100.62 11/08/2021 08:50:46 81.21, 90.52 100.58 2.57 54
8 11/08/2021 09:41:06 -81.23,-101.34 79.32 11/08/2021 09:41:26 -81.22,-101.43 79.32 1.58 20
9 11/11/2021 04:25:51 81.21, 157.09 101.40 11/11/2021 04:25:08 81.21, 157.10 101.39 0.46 43



Historial Predications of SNOs between TERRA and METOP-C
